This is the latest recevied weather packets stored in our database for station/object N5PUP-13. If no packets are shown the sender has not sent any weather packets the latest 10 day(s).
| Time | Temp. | Humidity | Pressure | Rain* | Wind** | Luminosity | Snow |
|---|---|---|---|---|---|---|---|
| 1787519400 | 40° C | 25% | 1013.9 hPa | 0 mm | - | - | - |
| 1787519100 | 39.44° C | 26% | 1014.1 hPa | 0 mm | - | - | - |
| 1787518800 | 39.44° C | 28% | 1014 hPa | 0 mm | - | - | - |
| 1787518500 | 39.44° C | 29% | 1014.1 hPa | 0 mm | - | - | - |
| 1787518200 | 40° C | 28% | 1014.1 hPa | 0 mm | - | - | - |
| 1787517900 | 39.44° C | 28% | 1014.2 hPa | 0 mm | - | - | - |
| 1787517600 | 40° C | 28% | 1014.4 hPa | 0 mm | - | - | - |
| 1787517300 | 39.44° C | 28% | 1014.5 hPa | 0 mm | - | - | - |
| 1787517000 | 39.44° C | 28% | 1014.7 hPa | 0 mm | - | - | - |
| 1787516700 | 39.44° C | 29% | 1014.8 hPa | 0 mm | - | - | - |
| 1787516400 | 39.44° C | 29% | 1014.9 hPa | 0 mm | - | - | - |
| 1787516100 | 38.89° C | 29% | 1015 hPa | 0 mm | - | - | - |
| 1787515800 | 38.89° C | 30% | 1015.1 hPa | 0 mm | - | - | - |
| 1787515500 | 38.89° C | 30% | 1015 hPa | 0 mm | - | - | - |
| 1787515200 | 38.89° C | 29% | 1015.2 hPa | 0 mm | - | - | - |
| 1787514900 | 38.89° C | 31% | 1015.2 hPa | 0 mm | - | - | - |
| 1787514600 | 38.89° C | 31% | 1015.3 hPa | 0 mm | - | - | - |
| 1787514300 | 38.89° C | 32% | 1015.5 hPa | 0 mm | - | - | - |
| 1787514000 | 38.33° C | 32% | 1015.5 hPa | 0 mm | - | - | - |
| 1787513700 | 38.33° C | 32% | 1015.7 hPa | 0 mm | - | - | - |
| 1787513400 | 38.33° C | 32% | 1015.7 hPa | 0 mm | - | - | - |
| 1787513100 | 37.22° C | 33% | 1015.8 hPa | 0 mm | - | - | - |
| 1787512800 | 37.78° C | 33% | 1015.8 hPa | 0 mm | - | - | - |
| 1787512500 | 38.33° C | 32% | 1016 hPa | 0 mm | - | - | - |
| 1787512200 | 37.78° C | 32% | 1016 hPa | 0 mm | - | - | - |
* Rain latest hour (hover to see other rain measurements)
** Current wind speed in m/s (hover to see current wind gust speed)